Tracking 29892 objects as of 21-Nov-2024
HD Live streaming from Space Station
objects crossing your sky now

COSMOS 1275 DEB

Track COSMOS 1275 DEB now!
10-day predictions


NORAD ID: 39936
Int'l Code: 1981-053NC
Perigee: 893.0 km
Apogee: 985.6 km
Inclination: 83.1 °
Period: 103.7 minutes
Semi major axis: 7310 km
RCS: 0.0039 m2 (small)
Launch date: April 25, 1981
Source: Commonwealth of Independent States (former USSR) (CIS)
Launch site: PLESETSK MISSILE AND SPACE COMPLEX (PKMTR)

Note: This is SATELLITE DEBRIS
Your satellite tracking list
Your tracking list is empty




NASA's NSSDC Master Catalog

Two Line Element Set (TLE):
1 39936U 81053MW  24320.57665365  .00003594  00000-0  29073-2 0  9995
2 39936  83.1488 266.5749 0063364  50.5278 310.1467 13.88994717 41242
Source of the keplerian elements: AFSPC